Somerville, NJ

5:40 AM EDT on May 24, 2017 (GMT -0400)
Somerset

Weather History for KSMQ - January, 2014

Change the Weather History Date:

Saturday, January 11, 2014

  Actual Average Record
Temperature  
Mean Temperature 48 °F -  
Max Temperature 62 °F 34 °F 62 °F (2014)
Min Temperature 33 °F 17 °F -7 °F (1988)
Degree Days  
Heating Degree Days 18    
Moisture  
Dew Point 47 °F    
Average Humidity 96    
Maximum Humidity 100    
Minimum Humidity 82    
Precipitation  
Precipitation 0.61 in - - ()
Sea Level Pressure  
Sea Level Pressure 29.70 in    
Wind  
Wind Speed 4 mph (South)    
Max Wind Speed 13 mph    
Max Gust Speed 18 mph    
Visibility 4 miles    
Events Fog , Rain    
Averages and records for this station are not official NWS values.
T = Trace of Precipitation, MM = Missing Value Source: NWS Daily Summary

Daily Weather History Graph

Daily Weather History Graph

Search for Another Location

Airport or City:

Trip Planner

Search our weather history database for the weather conditions in past years. The results will help you decide how hot, cold, wet, or windy it might be!

Date:

Astronomy

Jan. 11, 2014 Rise Set
Actual Time 7:21 AM EST 4:51 PM EST
Civil Twilight 6:51 AM EST 5:22 PM EST
Nautical Twilight 6:17 AM EST 5:56 PM EST
Astronomical Twilight 5:44 AM EST 6:29 PM EST
Moon 1:34 PM EST (1/11) 3:23 AM EST (1/11)
Length of Visible Light 10h 30m
Length of Day
9h 30m
Waxing Gibbous, 83% of the Moon is Illuminated
Jan 11
Waxing Gibbous
Jan 15
Full
Jan 24
Last Quarter
Jan 30
New
Feb 6
First Quarter

Hourly Weather History & Observations

Time (EST) Temp. Windchill Dew Point Humidity Pressure Visibility Wind Dir Wind Speed Gust Speed Precip Events Conditions
12:12 AM 34.0 °F - 33.1 °F 96% 30.18 in 1.2 mi Calm Calm - 0.01 in Rain Light Rain
12:37 AM 34.0 °F 31.0 °F 33.1 °F 96% 30.16 in 1.2 mi North 3.5 mph - 0.02 in Rain Light Rain
12:53 AM 34.0 °F 29.8 °F 33.1 °F 96% 30.17 in 1.8 mi NNW 4.6 mph - 0.03 in Rain Light Rain
1:23 AM 34.0 °F 31.0 °F 33.1 °F 96% 30.14 in 2.0 mi NW 3.5 mph - 0.01 in Rain Light Rain
1:34 AM 34.0 °F - 34.0 °F 100% 30.13 in 1.5 mi Calm Calm - 0.03 in Rain Light Rain
1:53 AM 34.0 °F 31.0 °F 33.1 °F 96% 30.13 in 1.0 mi NNW 3.5 mph - 0.06 in Rain Rain
2:28 AM 34.0 °F 31.0 °F 33.1 °F 96% 30.09 in 0.5 mi WNW 3.5 mph - 0.01 in Fog Fog
2:42 AM 34.0 °F 29.8 °F 34.0 °F 100% 30.08 in 1.5 mi WNW 4.6 mph - 0.01 in   Overcast
2:51 AM 35.6 °F 31.7 °F 33.8 °F 93% 30.07 in 2.0 mi NNW 4.6 mph - 0.01 in   Overcast
2:53 AM 35.1 °F 32.2 °F 34.0 °F 96% 30.08 in 2.0 mi NNW 3.5 mph - 0.01 in   Overcast
3:01 AM 35.1 °F 32.2 °F 34.0 °F 96% 30.06 in 1.5 mi NNW 3.5 mph - N/A   Overcast
3:36 AM 35.1 °F - 34.0 °F 96% 30.04 in 2.0 mi Calm Calm - 0.00 in Rain Light Rain
3:49 AM 33.8 °F 30.8 °F 33.8 °F 100% 30.03 in 1.2 mi Variable 3.5 mph - 0.00 in Rain Light Rain
3:53 AM 35.1 °F 32.2 °F 34.0 °F 96% 30.04 in 1.0 mi NW 3.5 mph - 0.00 in Rain Light Rain
4:18 AM 35.1 °F 32.2 °F 34.0 °F 96% 30.00 in 0.5 mi NW 3.5 mph - 0.01 in Fog , Rain Light Rain
4:28 AM 35.1 °F 32.2 °F 34.0 °F 96% 30.00 in 0.8 mi Variable 3.5 mph - 0.01 in Rain Light Rain
4:33 AM 35.1 °F 32.2 °F 34.0 °F 96% 30.00 in 1.0 mi Variable 3.5 mph - 0.01 in Rain Light Rain
4:53 AM 35.1 °F 30.1 °F 34.0 °F 96% 29.99 in 1.2 mi NW 5.8 mph - 0.02 in Rain Light Rain
5:03 AM 35.1 °F 32.2 °F 35.1 °F 100% 29.98 in 1.0 mi Variable 3.5 mph - 0.00 in Rain Light Rain
5:53 AM 36.0 °F - 36.0 °F 100% 29.95 in 1.2 mi Calm Calm - 0.01 in   Overcast
6:10 AM 36.0 °F 33.3 °F 36.0 °F 100% 29.93 in 1.5 mi NW 3.5 mph - N/A   Overcast
6:40 AM 36.0 °F 32.1 °F 35.1 °F 97% 29.91 in 0.8 mi WNW 4.6 mph - 0.01 in Rain Light Rain
6:53 AM 37.0 °F - 37.0 °F 100% 29.92 in 0.8 mi Calm Calm - 0.02 in Rain Light Rain
7:10 AM 37.0 °F - 36.0 °F 96% 29.91 in 0.8 mi Calm Calm - 0.00 in Rain Light Rain
7:48 AM 37.4 °F - 35.6 °F 93% 29.85 in 0.2 mi North - - 0.01 in Fog Fog
7:53 AM 37.0 °F 33.3 °F 36.0 °F 96% 29.87 in 0.2 mi WNW 4.6 mph - 0.01 in Fog Fog
8:53 AM 37.9 °F - 37.9 °F 100% 29.84 in 0.2 mi Calm Calm - 0.00 in Fog Fog
9:53 AM 39.0 °F - 37.9 °F 96% 29.78 in 0.2 mi Calm Calm - 0.02 in Fog , Rain Light Rain
10:16 AM 43.0 °F 39.5 °F 41.0 °F 93% 29.76 in 0.2 mi SE 5.8 mph - 0.05 in Fog , Rain Rain
10:25 AM 50.0 °F - 48.9 °F 96% 29.76 in 0.2 mi SSE 6.9 mph - 0.06 in Fog , Rain Light Rain
10:41 AM 54.0 °F - 54.0 °F 100% 29.74 in 0.5 mi SSE 8.1 mph - 0.06 in Fog , Rain Light Rain
10:46 AM 55.9 °F - 55.9 °F 100% 29.73 in 1.0 mi SSE 9.2 mph - 0.06 in Rain Light Rain
10:53 AM 57.0 °F - 55.9 °F 96% 29.73 in 10.0 mi SSE 9.2 mph - 0.06 in Rain Light Rain
10:58 AM 57.9 °F - 57.0 °F 97% 29.72 in 10.0 mi SSE 9.2 mph - 0.00 in   Overcast
11:41 AM 59.0 °F - 57.9 °F 96% 29.66 in 5.0 mi South 10.4 mph - 0.01 in   Overcast
11:51 AM 59.0 °F - 57.2 °F 94% 29.65 in 1.8 mi South 12.7 mph - 0.01 in   Overcast
11:53 AM 59.0 °F - 57.9 °F 96% 29.65 in 1.5 mi SSE 9.2 mph - 0.01 in Rain Light Rain
12:16 PM 59.0 °F - 57.9 °F 96% 29.61 in 3.0 mi SSE 9.2 mph - 0.01 in   Overcast
12:41 PM 59.0 °F - 57.9 °F 96% 29.59 in 2.5 mi SSE 10.4 mph - 0.01 in   Overcast
12:51 PM 59.0 °F - 57.2 °F 94% 29.58 in 4.0 mi South 11.5 mph 17.3 mph 0.01 in   Overcast
12:53 PM 59.0 °F - 57.9 °F 96% 29.59 in 4.0 mi SSE 8.1 mph 17.3 mph 0.01 in   Overcast
12:58 PM 59.0 °F - 57.9 °F 96% 29.59 in 2.5 mi South 8.1 mph - 0.02 in Rain Light Rain
1:06 PM 59.0 °F - 57.9 °F 96% 29.58 in 2.5 mi South 8.1 mph - 0.02 in Rain Light Rain
1:10 PM 59.0 °F - 57.9 °F 96% 29.57 in 4.0 mi South 5.8 mph - 0.03 in Rain Light Rain
1:53 PM 60.1 °F - 59.0 °F 96% 29.50 in 10.0 mi South 9.2 mph - 0.04 in   Mostly Cloudy
1:57 PM 60.1 °F - 59.0 °F 96% 29.50 in 10.0 mi South 9.2 mph - N/A   Overcast
2:44 PM 61.0 °F - 59.0 °F 93% 29.46 in 8.0 mi South 4.6 mph - 0.02 in Rain Light Rain
2:53 PM 61.0 °F - 59.0 °F 93% 29.46 in 8.0 mi South 5.8 mph - 0.02 in Rain Light Rain
3:09 PM 61.0 °F - 59.0 °F 93% 29.45 in 7.0 mi South 9.2 mph - 0.01 in Rain Light Rain
3:49 PM 60.8 °F - 59.0 °F 94% 29.45 in 1.0 mi SW 9.2 mph - 0.11 in Rain Rain
3:53 PM 62.1 °F - 60.1 °F 93% 29.47 in 1.0 mi SW 9.2 mph - 0.11 in Rain Rain
3:59 PM 62.1 °F - 59.0 °F 90% 29.46 in 4.0 mi SW 9.2 mph 18.4 mph 0.00 in Rain Light Rain
4:53 PM 57.9 °F - 55.9 °F 93% 29.45 in 4.0 mi Calm Calm - 0.07 in Rain Rain
5:53 PM 55.0 °F - 54.0 °F 96% 29.46 in 10.0 mi South 3.5 mph - 0.06 in Rain Light Rain
6:33 PM 53.1 °F - 52.0 °F 96% 29.44 in 1.5 mi SE 3.5 mph - 0.01 in Rain Light Rain
6:43 PM 51.1 °F - 51.1 °F 100% 29.43 in 0.5 mi SE 3.5 mph - 0.01 in Fog Fog
6:53 PM 52.0 °F - 51.1 °F 97% 29.42 in 1.8 mi Calm Calm - 0.01 in Rain Light Rain
6:56 PM 53.1 °F - 52.0 °F 96% 29.41 in 3.0 mi ESE 3.5 mph - 0.00 in Rain Light Rain
7:08 PM 52.0 °F - 51.1 °F 97% 29.40 in 1.8 mi Calm Calm - 0.00 in Rain Light Rain
7:20 PM 51.1 °F - 50.0 °F 96% 29.39 in 0.5 mi SSE 3.5 mph - 0.00 in Fog , Rain Light Rain
7:42 PM 53.1 °F - 52.0 °F 96% 29.32 in 2.5 mi SE 9.2 mph - 0.01 in Rain Light Rain
7:49 PM 53.6 °F - 53.6 °F 100% 29.31 in 9.0 mi SE 6.9 mph - 0.01 in Rain Light Rain
7:53 PM 53.1 °F - 52.0 °F 96% 29.31 in 10.0 mi SE 9.2 mph - 0.01 in   Overcast
8:21 PM 53.1 °F - 52.0 °F 96% 29.36 in 10.0 mi Variable 4.6 mph - N/A   Overcast
8:31 PM 53.1 °F - 52.0 °F 96% 29.34 in 10.0 mi Calm Calm - N/A   Overcast
8:44 PM 53.1 °F - 52.0 °F 96% 29.38 in 7.0 mi Variable 5.8 mph - N/A   Mostly Cloudy
8:53 PM 53.1 °F - 51.1 °F 93% 29.38 in 10.0 mi Variable 3.5 mph - N/A   Mostly Cloudy
9:53 PM 53.1 °F - 51.1 °F 93% 29.40 in 10.0 mi Variable 5.8 mph - 0.00 in   Overcast
10:12 PM 53.1 °F - 51.1 °F 93% 29.41 in 10.0 mi Variable 5.8 mph - N/A   Overcast
10:53 PM 53.1 °F - 50.0 °F 89% 29.42 in 10.0 mi SSW 3.5 mph - N/A   Overcast
11:51 PM 50.0 °F - 44.6 °F 82% 29.42 in 5.0 mi West 5.8 mph - 0.02 in Rain Light Rain
11:53 PM 50.0 °F - 45.0 °F 83% 29.42 in 5.0 mi Variable 6.9 mph - 0.03 in Rain Light Rain